CZ-3B DEB, 40164

Orbit data source: Space-Track

CZ-3B DEB, 40164 is space debris in HEO originally from a launch on Sat, 04 Sep 2010 UTC launched from the Xichang Space Center, China (XSC). Debris objects in space refer to the collection of defunct objects orbiting the Earth. Examples of debris include non-operational satellites, rocket bodies, and fragments generated from explosions, collisions, or faulty payload assembly.

Loading next visibility...
Identifier
40164, 2010-042R
Orbit
HEO
Country
Flag of CNCN / PRC
Related business
Manufacturer
CALT
Mission
Spacecraft
Bus & Motor
Unknown
Mass
Unknown
Launch date (UTC)
2010-09-04 (15 years ago)
Launch vehicle
Unknown
Launch site
Xichang Space Center, China (XSC)
Object type
Payload
Rocket body
Debris
Shape & HBR
Unknown shape, 0.3 m
Radar Cross Section
Medium (>0.1 m² and <1 m²)

Expand to show TLE details & history
Last TLE update: 15 hours ago

TLE from 15 hours ago
0 CZ-3B DEB
1 40164U 10042R   25352.64110296 -.00000020  00000-0  00000-0 0  9991
2 40164  27.2395 280.5325 7271877 308.0344 228.3790  1.89872272 83830
Epoch: 2025-12-18T15:23Z
TLE epoch observation values (Epoch: 2025-12-18T15:23:11.295Z)
Latitude
17.26948°
Longitude
105.12134°
Altitude
38,811.817 km
Speed
1.781 km/s
True Right ascension
04h 13m 38s
True Declination
17° 15' 15"
Sunlit
Object was in daylight at epoch
Visualization orbit readout
Latitude
Unknown
Longitude
Unknown
Altitude
Unknown
Speed
Unknown
Apparent Right ascension
Unknown
Apparent Declination
Unknown
Sunlit
N/A
Visualization observer readout
Local Sidereal Time
05:25:12
Azimuth
Unknown
Elevation
Unknown
Doppler factor
Unknown
Orbital elements
Apogee altitude
41,208.759 km
Perigee altitude
1,138.296 km
Semi-major axis
27,551.665 km
Eccentricity
0.72719
Inclination
27.2395°
RAAN
280.5325°
Arg. of periapsis
308.0344°
True anomaly
191.52679°
Mean anomaly
228.379°
Eccentric anomaly
208.49895°
Mean motion
0.47459 °/min
Orbital period
758.54 mins
BSTAR
0
Loading maneuver chart data...
Computing Atmospheric mass density...
Loading historical data...
Loading historical data...
Loading historical data...
Loading historical data...
Loading historical data...
Loading historical data...
Loading historical data...

Documentation

Showing up to 5 results
|